Flag for Germany Weather past 2 weeks in Burgdorf, Lower Saxony, Germany

Now
61 °F

Mostly cloudy.


Feels Like: 61 °F
Forecast: 50 / 66 °F
Wind: 9 mph from Southwest

Location: Celle Airport

Current Time: Aug 31, 2014 at 12:20:53 PM

Latest Report: Aug 31, 2014 at 11:20 AM


Visibility: 6 mi

Pressure: 29.92 "Hg

Humidity: 88%

Dew point: 57 °F

Location of BurgdorfLocation

Historic Weather in Burgdorf — Graph

°F

Burgdorf temperature yesterday

Maximum temperature yesterday: 64 °F (at 4:20 PM)
Minimum temperature yesterday: 55 °F (at 5:20 AM)
Average temperature yesterday: 60 °F

Past Weeks' High & Low Weather Summary

 TemperatureHumidityPressure
High75 °F (Aug 28, 5:20 PM)100% (Aug 24, 7:20 AM)30.07 "Hg (Aug 24, 7:20 AM)
Low43 °F (Aug 27, 4:20 AM)33% (Aug 27, 6:20 PM)29.59 "Hg (Aug 18, 7:20 AM)
Average57 °F77%29.89 "Hg
* Reported Aug 16 10:20 AM — Aug 31 10:20 AM, Burgdorf, Weather by CustomWeather, © 2014

Note: Actual official high and low records may vary slightly from our data, if they occured in-between our weather recording intervals... More about our weather records

Advertising

Burgdorf weather history for previous 24 hours

 ConditionsComfort  
Time TempWeatherWind HumidityBarometerVisibility
10:20 AM
Aug 31
59 °FLow clouds.7 mph88%29.92 "HgN/A
9:20 AM59 °FBroken clouds.5 mph88%29.92 "Hg5 mi
8:20 AM57 °FFog.3 mph94%29.92 "Hg2 mi
7:20 AM55 °FFog.5 mph100%29.92 "Hg1 mi
6:20 AM55 °FFog.5 mph100%29.92 "Hg1 mi
5:20 AM55 °FCool.5 mph94%29.92 "Hg4 mi
4:20 AM55 °FCool.3 mph100%29.92 "Hg4 mi
3:20 AM57 °FCool.5 mph94%29.92 "Hg6 mi
2:20 AM57 °FCool.7 mph94%29.95 "HgN/A
1:20 AM59 °FCool.9 mph94%29.95 "Hg6 mi
12:20 AM61 °FCool.5 mph94%29.95 "Hg6 mi
11:20 PM
Aug 30
59 °FCool.5 mph100%29.95 "Hg4 mi
10:20 PM61 °FCool.5 mph94%29.95 "Hg3 mi
9:20 PM61 °FCool.3 mph94%29.95 "Hg4 mi
8:20 PM61 °FCool.5 mph94%29.95 "Hg4 mi
7:20 PM61 °FCool.7 mph94%29.95 "Hg4 mi
6:20 PM63 °FMild.7 mph88%29.98 "HgN/A
5:20 PM63 °FMild.7 mph94%29.98 "Hg1 mi
4:20 PM64 °FMild.6 mph83%29.98 "Hg6 mi
3:20 PM63 °FMild.9 mph88%29.98 "Hg5 mi
Weather by CustomWeather, © 2014

See weather overviewHow to use our weather pages